Time,TemperatureF,DewpointF,PressureIn,WindDirection,WindDirectionDegrees,WindSpeedMPH,WindSpeedGustMPH,Humidity,HourlyPrecipIn,Conditions,Clouds,dailyrainin,SoftwareType,DateUTC
2013-02-27 00:00:00,13.0,-99.9,-100.00,South,179,1.0,5.0,-999,-99.99,,,0.00,,2013-02-27 07:00:00,
2013-02-27 00:52:00,13.0,-99.9,-100.00,South,179,1.0,5.0,-999,-99.99,,,0.00,,2013-02-27 07:52:00,
2013-02-27 01:00:00,15.0,-99.9,-100.00,South,186,2.0,4.0,-999,-99.99,,,0.00,,2013-02-27 08:00:00,
2013-02-27 01:53:00,15.0,-99.9,-100.00,South,186,2.0,4.0,-999,-99.99,,,0.00,,2013-02-27 08:53:00,
2013-02-27 02:00:00,14.0,-99.9,-100.00,South,190,2.0,4.0,-999,-99.99,,,0.00,,2013-02-27 09:00:00,
2013-02-27 02:52:00,14.0,-99.9,-100.00,South,190,2.0,4.0,-999,-99.99,,,0.00,,2013-02-27 09:52:00,
2013-02-27 03:00:00,15.0,-99.9,-100.00,South,189,1.0,4.0,-999,-99.99,,,0.00,,2013-02-27 10:00:00,
2013-02-27 03:53:00,15.0,-99.9,-100.00,South,189,1.0,4.0,-999,-99.99,,,0.00,,2013-02-27 10:53:00,
2013-02-27 04:00:00,15.0,-99.9,-100.00,South,188,1.0,4.0,-999,-99.99,,,0.00,,2013-02-27 11:00:00,
2013-02-27 04:52:00,15.0,-99.9,-100.00,South,188,1.0,4.0,-999,-99.99,,,0.00,,2013-02-27 11:52:00,
2013-02-27 05:00:00,15.0,-99.9,-100.00,South,189,1.0,5.0,-999,-99.99,,,0.00,,2013-02-27 12:00:00,
2013-02-27 05:53:00,15.0,-99.9,-100.00,South,189,1.0,5.0,-999,-99.99,,,0.00,,2013-02-27 12:53:00,
2013-02-27 06:00:00,16.0,-99.9,-100.00,South,187,1.0,4.0,-999,-99.99,,,0.00,,2013-02-27 13:00:00,
2013-02-27 06:53:00,16.0,-99.9,-100.00,South,187,1.0,4.0,-999,-99.99,,,0.00,,2013-02-27 13:53:00,
2013-02-27 07:00:00,14.0,-99.9,-100.00,South,189,1.0,4.0,-999,-99.99,,,0.00,,2013-02-27 14:00:00,
2013-02-27 07:53:00,14.0,-99.9,-100.00,South,189,1.0,4.0,-999,-99.99,,,0.00,,2013-02-27 14:53:00,
2013-02-27 08:00:00,15.0,-99.9,-100.00,South,186,1.0,2.0,-999,-99.99,,,0.00,,2013-02-27 15:00:00,
2013-02-27 08:52:00,15.0,-99.9,-100.00,South,186,1.0,2.0,-999,-99.99,,,0.00,,2013-02-27 15:52:00,
2013-02-27 09:00:00,21.0,-99.9,-100.00,SE,139,0.0,5.0,-999,-99.99,,,0.00,,2013-02-27 16:00:00,
2013-02-27 09:52:00,21.0,-99.9,-100.00,SE,139,0.0,5.0,-999,-99.99,,,0.00,,2013-02-27 16:52:00,
2013-02-27 10:00:00,23.0,-99.9,-100.00,WNW,291,1.0,5.0,-999,-99.99,,,0.00,,2013-02-27 17:00:00,
2013-02-27 10:52:00,23.0,-99.9,-100.00,WNW,291,1.0,5.0,-999,-99.99,,,0.00,,2013-02-27 17:52:00,
2013-02-27 12:00:00,30.0,-99.9,-100.00,North,356,2.0,5.0,-999,-99.99,,,-99.99,,2013-02-27 19:00:00,
2013-02-27 12:52:00,30.0,-99.9,-100.00,North,356,2.0,5.0,-999,-99.99,,,-99.99,,2013-02-27 19:52:00,
2013-02-27 13:00:00,33.0,-99.9,-100.00,NNW,342,2.0,5.0,-999,-99.99,,,-99.99,,2013-02-27 20:00:00,
2013-02-27 14:00:00,34.0,-99.9,-100.00,NNW,336,2.0,6.0,-999,-99.99,,,0.00,,2013-02-27 21:00:00,
2013-02-27 14:52:00,34.0,-99.9,-100.00,NNW,336,2.0,6.0,-999,-99.99,,,0.00,,2013-02-27 21:52:00,
2013-02-27 15:00:00,33.0,-99.9,-100.00,WNW,293,1.0,5.0,-999,-99.99,,,0.00,,2013-02-27 22:00:00,
2013-02-27 15:52:00,33.0,-99.9,-100.00,WNW,293,1.0,5.0,-999,-99.99,,,0.00,,2013-02-27 22:52:00,
2013-02-27 16:00:00,34.0,-99.9,-100.00,West,271,1.0,6.0,-999,-99.99,,,0.00,,2013-02-27 23:00:00,
2013-02-27 16:53:00,34.0,-99.9,-100.00,West,271,1.0,6.0,-999,-99.99,,,0.00,,2013-02-27 23:53:00,
2013-02-27 17:00:00,29.0,-99.9,-100.00,SSE,161,1.0,5.0,-999,-99.99,,,-99.99,,2013-02-28 00:00:00,
2013-02-27 17:52:00,29.0,-99.9,-100.00,SSE,161,1.0,5.0,-999,-99.99,,,-99.99,,2013-02-28 00:52:00,
2013-02-27 18:00:00,27.0,-99.9,-100.00,SE,141,0.0,6.0,-999,-99.99,,,0.00,,2013-02-28 01:00:00,
2013-02-27 18:52:00,27.0,-99.9,-100.00,SE,141,0.0,6.0,-999,-99.99,,,0.00,,2013-02-28 01:52:00,
2013-02-27 19:00:00,23.0,-99.9,-100.00,SSE,167,1.0,5.0,-999,-99.99,,,0.00,,2013-02-28 02:00:00,
2013-02-27 20:00:00,21.0,-99.9,-100.00,South,179,1.0,5.0,-999,-99.99,,,0.00,,2013-02-28 03:00:00,
2013-02-27 20:52:00,21.0,-99.9,-100.00,South,179,1.0,5.0,-999,-99.99,,,0.00,,2013-02-28 03:52:00,
2013-02-27 21:00:00,19.0,-99.9,-100.00,South,182,2.0,5.0,-999,-99.99,,,0.00,,2013-02-28 04:00:00,
2013-02-27 21:52:00,19.0,-99.9,-100.00,South,182,2.0,5.0,-999,-99.99,,,0.00,,2013-02-28 04:52:00,
2013-02-27 22:00:00,19.0,-99.9,-100.00,South,178,1.0,5.0,-999,-99.99,,,0.00,,2013-02-28 05:00:00,
2013-02-27 22:52:00,19.0,-99.9,-100.00,South,178,1.0,5.0,-999,-99.99,,,0.00,,2013-02-28 05:52:00,
2013-02-27 23:00:00,19.0,-99.9,-100.00,South,180,2.0,5.0,-999,-99.99,,,0.00,,2013-02-28 06:00:00,
2013-02-27 23:52:00,19.0,-99.9,-100.00,South,180,2.0,5.0,-999,-99.99,,,0.00,,2013-02-28 06:52:00,